• In Romania
  • List of Countries
  • For 7 days
  • Water Temperature
  • Satellite Maps
  • Weather Map
  • Weather Widgets
  • user-avatar
    Login

    Hourly Weather Zbudovo

    Today, 21 September, Friday

    Time Temperature Precipitation Wind Pressure Humidity
    00:00 +14°C° 0 mm 2 mps 746 mmHg 92%
    01:00 +14°C° 0 mm 2 mps 747 mmHg 93%
    02:00 +14°C° 0 mm 2 mps 747 mmHg 94%
    03:00 +14°C° 0 mm 2 mps 747 mmHg 94%
    04:00 +14°C° 0 mm 2 mps 747 mmHg 95%
    05:00 +13°C° 0 mm 2 mps 747 mmHg 95%
    06:00 +15°C° 0 mm 2 mps 747 mmHg 91%
    07:00 +16°C° 0 mm 3 mps 747 mmHg 86%
    08:00 +17°C° 0 mm 3 mps 748 mmHg 81%
    09:00 +19°C° 0 mm 3 mps 748 mmHg 75%
    10:00 +20°C° 0 mm 3 mps 748 mmHg 69%
    11:00 +22°C° 0 mm 3 mps 748 mmHg 63%
    12:00 +22°C° 0 mm 3 mps 748 mmHg 62%
    13:00 +24°C° 0 mm 3 mps 748 mmHg 61%
    14:00 +24°C° 0 mm 3 mps 748 mmHg 60%
    15:00 +22°C° 0.5 mm 3 mps 748 mmHg 68%
    16:00 +21°C° 0.5 mm 2 mps 747 mmHg 76%
    17:00 +20°C° 0.5 mm 2 mps 747 mmHg 83%
    18:00 +19°C° 0 mm 2 mps 747 mmHg 87%
    19:00 +18°C° 0 mm 2 mps 747 mmHg 90%
    20:00 +17°C° 0 mm 2 mps 747 mmHg 94%
    21:00 +17°C° 0 mm 2 mps 747 mmHg 94%
    22:00 +17°C° 0 mm 2 mps 747 mmHg 94%
    23:00 +17°C° 0 mm 2 mps 747 mmHg 94%

    Tomorrow, 22 September, Saturday

    Time Temperature Precipitation Wind Pressure Humidity
    00:00 +16°C° 0 mm 2 mps 747 mmHg 94%
    01:00 +16°C° 0 mm 3 mps 747 mmHg 94%
    02:00 +16°C° 0 mm 3 mps 747 mmHg 94%
    03:00 +16°C° 0 mm 3 mps 746 mmHg 95%
    04:00 +16°C° 0 mm 3 mps 746 mmHg 95%
    05:00 +16°C° 0 mm 3 mps 746 mmHg 96%
    06:00 +17°C° 0 mm 4 mps 745 mmHg 92%
    07:00 +17°C° 0 mm 4 mps 745 mmHg 87%
    08:00 +18°C° 0 mm 4 mps 745 mmHg 83%
    09:00 +20°C° 0 mm 5 mps 744 mmHg 75%
    10:00 +21°C° 0 mm 5 mps 744 mmHg 68%
    11:00 +23°C° 0 mm 6 mps 743 mmHg 60%
    12:00 +23°C° 0 mm 6 mps 743 mmHg 56%
    13:00 +24°C° 0 mm 6 mps 742 mmHg 53%
    14:00 +24°C° 0 mm 6 mps 742 mmHg 50%
    15:00 +23°C° 0.1 mm 5 mps 742 mmHg 55%
    16:00 +22°C° 0.1 mm 5 mps 742 mmHg 61%
    17:00 +20°C° 0.1 mm 4 mps 741 mmHg 66%
    18:00 +19°C° 0.2 mm 4 mps 742 mmHg 73%
    19:00 +17°C° 0.2 mm 3 mps 742 mmHg 80%
    20:00 +14°C° 0.2 mm 3 mps 742 mmHg 87%
    21:00 +13°C° 0.2 mm 3 mps 742 mmHg 87%
    22:00 +13°C° 0.2 mm 2 mps 742 mmHg 88%
    23:00 +12°C° 0.2 mm 2 mps 742 mmHg 89%

    Day after tomorrow, 23 September, Sunday

    Time Temperature Precipitation Wind Pressure Humidity
    00:00 +12°C° 0.2 mm 2 mps 742 mmHg 89%
    01:00 +12°C° 0.2 mm 2 mps 741 mmHg 89%
    02:00 +10°C° 0.2 mm 2 mps 741 mmHg 89%
    03:00 +10°C° 0.3 mm 2 mps 741 mmHg 90%
    04:00 +10°C° 0.3 mm 2 mps 741 mmHg 91%
    05:00 +10°C° 0.3 mm 2 mps 741 mmHg 93%
    06:00 +10°C° 0.7 mm 2 mps 741 mmHg 93%
    07:00 +10°C° 0.7 mm 2 mps 741 mmHg 93%
    08:00 +9°C° 0.7 mm 2 mps 741 mmHg 94%
    09:00 +10°C° 0.7 mm 2 mps 741 mmHg 93%
    10:00 +10°C° 0.7 mm 2 mps 741 mmHg 92%
    11:00 +10°C° 0.7 mm 2 mps 740 mmHg 92%
    12:00 +10°C° 0.7 mm 2 mps 740 mmHg 91%
    13:00 +10°C° 0.7 mm 2 mps 740 mmHg 90%
    14:00 +11°C° 0.7 mm 1 mps 740 mmHg 90%
    15:00 +11°C° 0.3 mm 1 mps 740 mmHg 91%
    16:00 +11°C° 0.3 mm 1 mps 740 mmHg 92%
    17:00 +11°C° 0.3 mm 1 mps 740 mmHg 94%
    18:00 +10°C° 0 mm 1 mps 740 mmHg 94%
    19:00 +10°C° 0 mm 1 mps 740 mmHg 95%
    20:00 +9°C° 0 mm 2 mps 740 mmHg 96%
    21:00 +8°C° 0 mm 2 mps 740 mmHg 96%
    22:00 +8°C° 0 mm 2 mps 740 mmHg 96%
    23:00 +7°C° 0 mm 2 mps 740 mmHg 96%

    24 September, Monday

    Time Temperature Precipitation Wind Pressure Humidity
    00:00 +7°C° 0 mm 2 mps 740 mmHg 96%
    01:00 +7°C° 0 mm 2 mps 740 mmHg 96%
    02:00 +6°C° 0 mm 2 mps 740 mmHg 97%
    03:00 +6°C° 0 mm 2 mps 739 mmHg 97%
    04:00 +5°C° 0 mm 3 mps 739 mmHg 96%
    05:00 +5°C° 0 mm 3 mps 739 mmHg 96%
    06:00 +7°C° 0 mm 3 mps 739 mmHg 94%
    07:00 +7°C° 0 mm 3 mps 740 mmHg 91%
    08:00 +8°C° 0 mm 3 mps 740 mmHg 89%
    09:00 +8°C° 0 mm 3 mps 740 mmHg 87%
    10:00 +9°C° 0 mm 3 mps 740 mmHg 85%
    11:00 +9°C° 0 mm 3 mps 741 mmHg 84%
    12:00 +9°C° 0.1 mm 3 mps 741 mmHg 82%
    13:00 +10°C° 0.1 mm 3 mps 741 mmHg 80%
    14:00 +10°C° 0.1 mm 3 mps 741 mmHg 78%
    15:00 +10°C° 0 mm 2 mps 741 mmHg 81%
    16:00 +9°C° 0 mm 2 mps 741 mmHg 84%
    17:00 +9°C° 0 mm 1 mps 741 mmHg 86%
    18:00 +9°C° 0 mm 1 mps 741 mmHg 88%
    19:00 +8°C° 0 mm 2 mps 741 mmHg 89%
    20:00 +7°C° 0 mm 2 mps 741 mmHg 91%
    21:00 +7°C° 0.2 mm 2 mps 740 mmHg 91%
    22:00 +7°C° 0.2 mm 2 mps 740 mmHg 92%
    23:00 +7°C° 0.2 mm 2 mps 740 mmHg 92%

    25 September, Tuesday

    Time Temperature Precipitation Wind Pressure Humidity
    00:00 +7°C° 0.6 mm 3 mps 739 mmHg 93%
    01:00 +7°C° 0.6 mm 3 mps 739 mmHg 93%
    02:00 +7°C° 0.6 mm 3 mps 738 mmHg 94%
    03:00 +6°C° 0.7 mm 4 mps 737 mmHg 93%
    04:00 +6°C° 0.7 mm 5 mps 737 mmHg 92%
    05:00 +7°C° 0.7 mm 5 mps 736 mmHg 92%
    06:00 +7°C° 1.1 mm 5 mps 735 mmHg 91%
    07:00 +7°C° 1.1 mm 5 mps 735 mmHg 91%
    08:00 +7°C° 1.1 mm 6 mps 734 mmHg 91%
    09:00 +7°C° 1.7 mm 5 mps 733 mmHg 91%
    10:00 +7°C° 1.7 mm 5 mps 733 mmHg 92%
    11:00 +7°C° 1.7 mm 5 mps 732 mmHg 92%
    12:00 +7°C° 1.2 mm 4 mps 732 mmHg 92%
    13:00 +8°C° 1.2 mm 4 mps 732 mmHg 93%
    14:00 +8°C° 1.2 mm 4 mps 732 mmHg 93%
    15:00 +9°C° 0.6 mm 3 mps 732 mmHg 93%
    16:00 +9°C° 0.6 mm 3 mps 731 mmHg 93%
    17:00 +9°C° 0.6 mm 3 mps 731 mmHg 93%
    18:00 +8°C° 0.3 mm 2 mps 731 mmHg 94%
    19:00 +8°C° 0.3 mm 2 mps 731 mmHg 95%
    20:00 +8°C° 0.3 mm 2 mps 731 mmHg 96%
    21:00 +8°C° 0.4 mm 2 mps 731 mmHg 97%
    22:00 +8°C° 0.4 mm 2 mps 732 mmHg 97%
    23:00 +8°C° 0.4 mm 2 mps 732 mmHg 97%

    26 September, Wednesday

    Time Temperature Precipitation Wind Pressure Humidity
    00:00 +8°C° 0.7 mm 2 mps 732 mmHg 97%
    01:00 +8°C° 0.7 mm 2 mps 732 mmHg 97%
    02:00 +8°C° 0.7 mm 2 mps 732 mmHg 96%
    03:00 +7°C° 1.2 mm 2 mps 732 mmHg 96%
    04:00 +7°C° 1.2 mm 2 mps 732 mmHg 96%
    05:00 +7°C° 1.2 mm 3 mps 733 mmHg 96%
    06:00 +7°C° 0.6 mm 3 mps 733 mmHg 95%
    07:00 +8°C° 0.6 mm 3 mps 734 mmHg 94%
    08:00 +8°C° 0.6 mm 3 mps 734 mmHg 94%
    09:00 +8°C° 0.3 mm 3 mps 735 mmHg 93%
    10:00 +8°C° 0.3 mm 3 mps 736 mmHg 91%
    11:00 +8°C° 0.3 mm 4 mps 736 mmHg 90%
    12:00 +7°C° 0.2 mm 4 mps 737 mmHg 90%
    13:00 +7°C° 0.2 mm 4 mps 738 mmHg 89%
    14:00 +7°C° 0.2 mm 5 mps 739 mmHg 88%
    15:00 +7°C° 0.1 mm 5 mps 740 mmHg 88%
    16:00 +7°C° 0.1 mm 5 mps 741 mmHg 88%
    17:00 +6°C° 0.1 mm 4 mps 741 mmHg 88%
    18:00 +6°C° 0.1 mm 4 mps 742 mmHg 88%
    19:00 +6°C° 0.1 mm 5 mps 743 mmHg 88%
    20:00 +6°C° 0.1 mm 5 mps 744 mmHg 88%
    21:00 +5°C° 0 mm 4 mps 745 mmHg 88%
    22:00 +5°C° 0 mm 4 mps 745 mmHg 88%
    23:00 +4°C° 0 mm 4 mps 746 mmHg 88%
    Show more